Temp
87 91 90 91 94 95 96 98 96 91 91 90 91 90 90 91 89 88 87 86 85 91
86 87 90 88 90 94 94 98 97 94 91 90 90 91 89 90 88 89 86 86 85 87
88 87 89 90 89 90 92 93 95 93 92 90 90 90 89 90 89 87 89 89 86 85
89 90 89 90 91 90 91 92 91 92 91 90 89 90 88 88 90 87 86 87 87 84
90 90 90 89 91 92 89 91 91 90 91 90 90 89 88 87 90 89 86 85 85 85
90 90 89 89 90 91 90 90 90 90 89 89 89 89 90 89 88 89 89 87 85 85
89 89 91 90 90 90 90 89 89 89 89 90 90 90 91 90 88 88 90 89 87 86
90 90 90 89 89 90 90 90 89 89 90 90 91 93 89 90 89 87 88 89 89 88
91 89 89 89 89 89 89 89 89 89 89 89 93 81 75 84 90 89 87 87 88 88
91 89 88 89 89 88 87 89 87 88 89 88 89 73 71 74 90 90 88 86 87 88
91 90 89 88 88 87 89 87 87 87 88 88 90 70 67 71 88 88 88 87 85 85
92 89 89 87 87 88 87 88 88 89 88 87 88 67 65 70 88 87 85 87 86 84
92 90 88 88 87 88 89 88 91 89 89 82 87 67 63 69 86 84 88 85 84 72
91 89 89 88 88 88 87 88 87 87 89 88 85 82 62 62 81 84 86 88 87 88
MSLP
1011.28 1011.37 1011.84 1011.89 1011.50 1011.80 1011.82 1011.68 1012.25 1013.30 1013.90 1014.41 1014.58 1015.05 1015.20 1015.83 1016.34 1016.59 1017.01 1017.19 1017.36 1016.60
1010.29 1010.66 1010.47 1010.85 1011.25 1011.37 1011.37 1011.40 1011.78 1012.56 1013.41 1013.94 1014.32 1014.62 1015.11 1015.51 1015.80 1016.05 1016.62 1016.84 1017.19 1017.16
1008.83 1009.48 1009.87 1010.20 1010.38 1010.61 1011.03 1011.31 1011.34 1011.95 1012.76 1013.48 1013.75 1014.17 1014.61 1014.77 1015.25 1015.64 1015.94 1016.28 1016.50 1016.95
1007.46 1008.27 1009.05 1009.27 1009.61 1010.10 1010.36 1010.71 1011.11 1011.49 1012.07 1012.72 1013.21 1013.56 1013.97 1014.29 1014.28 1014.91 1015.49 1015.62 1015.71 1016.26
1006.39 1007.08 1007.62 1008.21 1008.69 1009.12 1009.62 1010.03 1010.32 1010.94 1011.31 1011.90 1012.34 1012.79 1013.24 1013.57 1013.57 1013.84 1014.40 1014.81 1015.22 1015.50
1005.27 1005.79 1006.28 1006.93 1007.63 1008.14 1008.72 1009.28 1009.70 1010.10 1010.55 1011.01 1011.54 1011.92 1012.19 1012.49 1012.75 1012.91 1013.30 1013.94 1014.61 1015.09
1003.86 1004.37 1005.00 1005.81 1006.50 1007.16 1007.71 1008.35 1008.84 1009.20 1009.65 1010.04 1010.52 1010.87 1011.14 1011.54 1012.03 1012.36 1012.67 1013.18 1013.62 1014.27
1002.71 1003.51 1004.25 1004.80 1005.35 1006.10 1006.76 1007.23 1007.81 1008.26 1008.66 1009.04 1009.31 1009.62 1010.16 1010.49 1011.00 1011.62 1011.85 1011.89 1012.56 1013.07
1002.01 1002.84 1003.34 1003.92 1004.36 1005.00 1005.45 1006.00 1006.65 1007.03 1007.42 1007.74 1008.05 1008.42 1009.10 1009.82 1010.21 1010.59 1011.13 1011.27 1011.40 1011.83
1000.98 1001.80 1002.61 1003.20 1003.65 1003.92 1004.35 1005.01 1005.34 1005.97 1006.59 1006.86 1007.18 1007.56 1008.12 1008.92 1009.54 1009.86 1010.09 1010.40 1010.89 1011.07
999.84 1000.70 1001.67 1002.35 1002.65 1003.18 1003.68 1004.02 1004.44 1004.77 1005.24 1005.99 1006.31 1006.91 1007.46 1007.97 1008.10 1008.26 1008.34 1008.72 1009.19 1009.89
998.93 999.71 1000.48 1001.01 1001.69 1002.40 1002.97 1003.25 1003.51 1003.99 1004.51 1004.70 1005.22 1005.87 1006.54 1007.48 1007.62 1007.43 1007.69 1007.97 1007.85 1007.98
998.13 998.81 999.38 1000.06 1000.80 1001.48 1002.01 1002.36 1002.71 1002.86 1003.17 1003.70 1004.14 1004.69 1005.55 1006.58 1007.02 1007.16 1006.55 1006.40 1006.79 1006.71
997.29 997.87 998.63 999.42 1000.01 1000.44 1000.91 1001.27 1001.60 1001.85 1002.17 1002.50 1002.84 1003.18 1003.22 1003.01 1002.87 1002.66 1003.02 1004.20 1004.96 1005.50
Wind_Speed
18 13 14 14 12 12 11 9 8 13 11 11 11 11 8 8 8 8 7 8 7 6
18 18 16 17 14 12 10 10 9 10 11 12 12 11 10 9 10 7 8 8 8 7
20 20 17 15 16 15 14 12 9 12 12 12 13 12 11 11 10 10 8 9 9 8
20 20 18 17 16 16 13 13 14 10 13 13 14 13 13 12 10 13 11 10 9 10
19 20 20 19 18 17 17 15 14 15 14 14 15 14 14 15 14 13 14 13 11 11
21 20 20 20 19 18 17 17 17 16 16 16 16 16 16 16 15 14 14 13 13 12
22 21 20 19 19 19 18 18 17 17 17 18 18 18 17 17 16 15 14 14 15 15
20 19 19 19 19 18 18 17 18 18 18 18 18 16 18 18 16 16 16 16 15 16
18 18 19 18 19 18 19 19 18 19 19 20 16 19 18 18 16 16 16 16 16 16
18 18 18 18 18 19 19 18 19 18 18 19 20 14 18 20 16 15 16 17 15 15
19 18 17 18 18 17 16 18 17 18 19 17 16 13 15 19 21 18 18 18 18 17
18 18 18 20 18 16 16 16 16 16 17 19 17 16 18 16 16 18 18 17 17 19
17 18 19 18 17 15 15 16 15 17 17 18 18 16 17 15 12 16 15 19 20 23
17 18 17 15 14 15 15 15 16 16 15 18 20 19 30 33 23 20 19 16 15 16
Wind_Direction
212 213 210 216 230 210 237 214 194 179 195 215 205 207 212 211 213 200 212 215 240 267
201 213 212 213 210 236 237 232 203 186 188 205 213 203 203 218 191 221 201 204 216 239
203 206 216 212 216 212 222 229 245 184 193 205 209 208 204 207 213 196 206 222 191 224
204 205 207 219 211 215 214 215 213 211 195 203 210 207 205 220 222 194 205 224 215 202
206 205 206 211 215 212 214 208 207 208 202 204 209 208 210 211 216 211 203 211 218 208
207 207 208 208 210 212 210 213 210 208 210 205 210 213 211 213 212 216 210 207 211 216
209 209 208 207 208 209 210 210 211 211 209 210 210 214 216 212 216 215 217 211 211 209
206 208 208 206 208 207 209 210 212 213 212 212 214 213 214 217 211 213 217 215 209 212
205 207 210 208 207 206 207 209 209 214 214 215 218 215 204 210 219 215 217 221 216 218
201 207 209 211 210 209 209 209 213 215 217 220 223 213 197 195 216 220 220 222 222 218
203 204 204 210 213 211 209 213 214 217 217 222 224 201 192 196 214 221 223 217 219 223
202 202 202 210 210 209 212 216 217 219 217 219 222 194 182 186 225 228 228 230 220 213
207 203 206 207 205 206 211 218 219 220 220 219 218 189 180 183 219 235 229 224 230 223
206 207 207 206 205 204 208 219 215 226 217 217 214 205 186 191 203 207 212 223 224 228